Vorticity
nan nan nan nan nan nan nan nan nan nan nan nan nan nan nan nan nan nan nan nan nan nan nan nan nan nan nan nan nan nan nan nan nan nan nan nan nan nan nan nan nan nan nan
nan 8 7 7 7 7 8 9 10 10 11 11 11 12 11 11 12 13 13 14 15 12 14 15 15 16 14 12 13 12 11 10 10 9 11 8 6 7 8 9 10 9 nan
nan 8 7 6 8 7 9 8 9 11 11 11 10 10 10 11 11 11 11 11 11 13 14 13 11 12 14 14 12 11 11 11 11 11 9 10 9 8 6 7 9 8 nan
nan 8 8 6 7 9 9 9 9 9 10 10 10 9 9 10 8 10 10 10 10 10 10 11 10 12 16 14 10 10 11 12 12 12 10 9 9 9 9 7 7 9 nan
nan 8 8 7 8 9 8 8 8 8 9 9 10 9 9 8 8 10 9 9 8 8 9 10 10 10 13 17 17 16 14 10 10 10 11 10 9 9 10 11 9 6 nan
nan 8 8 7 7 8 8 7 8 9 9 9 9 9 10 6 6 13 13 10 10 9 10 10 10 4 3 9 12 14 19 20 16 11 10 9 11 11 12 12 10 8 nan
nan 9 8 8 9 7 9 8 7 8 8 9 10 9 9 6 7 13 13 11 10 10 11 11 10 8 7 9 7 3 7 13 14 16 13 10 10 14 17 11 10 13 nan
nan 10 8 9 11 9 8 8 8 9 8 9 8 8 7 5 6 9 11 10 9 10 10 10 9 8 8 7 8 5 5 7 12 14 11 13 15 14 11 9 10 7 nan
nan 10 14 17 12 9 9 8 9 9 8 9 10 9 7 5 5 11 13 10 7 6 5 11 14 5 4 12 14 8 8 7 7 9 10 6 4 8 19 18 8 9 nan
nan 11 15 20 17 11 10 8 9 8 10 9 9 9 10 6 5 10 17 15 7 7 6 3 7 10 9 18 15 9 7 6 7 8 7 4 6 7 9 15 13 14 nan
nan 12 19 21 13 13 11 10 10 10 10 10 7 6 7 8 8 8 22 21 10 7 7 6 4 7 12 11 15 15 9 5 8 10 8 6 7 7 8 8 12 14 nan
nan 12 12 13 16 17 13 12 13 13 10 7 8 6 8 7 9 12 13 15 19 16 9 10 8 7 10 14 13 9 8 6 4 8 9 9 10 10 9 9 10 12 nan
nan 11 11 11 12 12 11 11 10 11 13 11 9 9 9 8 7 8 9 7 14 16 13 13 13 12 8 4 6 12 11 10 10 10 10 10 10 12 14 10 8 7 nan
nan 10 10 10 10 10 12 11 11 11 10 10 9 10 9 10 9 8 7 9 10 13 8 2 4 5 11 16 10 7 13 11 12 11 10 10 10 9 10 9 10 10 nan
nan 9 10 10 9 8 10 13 14 12 15 13 12 13 13 11 8 10 15 13 7 8 11 9 5 6 7 9 10 11 10 9 9 9 10 10 11 10 9 10 10 11 nan
nan 10 9 10 9 9 8 6 11 15 14 15 18 14 12 15 11 8 10 11 10 9 11 10 10 9 9 10 10 11 10 9 7 9 10 10 10 11 9 11 10 10 nan
nan 9 10 11 10 10 10 9 4 4 6 10 11 14 17 11 9 10 7 5 6 10 14 9 10 10 9 9 9 10 9 9 10 8 10 11 12 11 9 8 11 11 nan
nan 10 9 9 11 11 11 11 11 10 7 4 6 8 9 11 12 9 6 6 14 11 9 10 9 9 9 9 10 11 11 8 8 8 9 9 9 8 13 10 11 10 nan
nan 11 11 10 10 12 11 11 11 12 11 12 11 9 6 7 9 8 8 10 10 12 10 8 10 10 9 9 9 8 9 11 10 10 7 7 9 10 10 11 10 8 nan
nan 10 15 12 9 8 9 9 10 11 12 11 11 15 14 7 10 11 8 10 7 10 11 11 9 9 10 9 8 11 12 11 10 9 8 8 8 8 10 11 7 12 nan
nan 4 8 14 9 8 9 8 8 9 10 11 11 5 11 15 11 11 12 12 9 9 9 11 13 13 10 9 10 9 9 10 11 11 11 9 7 9 11 10 11 12 nan
nan 8 8 8 9 9 7 8 8 8 8 10 11 10 7 8 9 9 9 9 11 9 10 11 11 10 12 13 13 9 9 11 11 11 10 10 10 10 9 11 12 11 nan
nan 8 8 6 7 11 10 9 10 9 8 9 10 11 8 9 10 9 9 10 10 10 11 10 10 11 12 12 12 11 10 10 11 11 11 10 10 11 10 10 11 11 nan
nan 7 8 10 9 8 12 13 12 10 11 15 9 9 10 12 10 11 10 10 10 10 9 10 8 9 12 10 9 9 15 14 9 14 12 11 12 11 7 9 11 10 nan
nan 7 8 9 12 16 16 13 11 12 14 11 10 12 11 10 10 10 11 11 10 11 10 9 10 10 9 7 6 10 18 14 5 11 18 14 10 8 11 13 11 12 nan
nan nan nan nan nan nan nan nan nan nan nan nan nan nan nan nan nan nan nan nan nan nan nan nan nan nan nan nan nan nan nan nan nan nan nan nan nan nan nan nan nan nan nan
CAPE
878 709 722 751 837 858 766 577 535 223 5 96 181 557 855 925 1107 1210 1257 959 807 906 983 941 929 1069 1382 1026 733 1127 1172 394 218 210 143 70 14 8 7 4 10 11 13
1028 721 751 805 868 819 623 451 412 83 5 35 57 87 69 249 592 548 334 300 424 490 517 491 512 474 884 777 587 312 71 75 152 120 94 72 6 5 3 3 5 12 10
1013 650 689 853 891 741 467 305 307 52 19 48 57 103 61 62 40 47 35 6 5 120 203 161 55 3 22 49 39 36 13 13 48 113 56 7 7 5 3 2 3 4 6
871 573 742 870 954 631 315 147 143 123 111 55 35 30 17 14 20 13 9 7 8 6 7 6 5 5 9 7 3 4 2 14 46 67 83 79 7 6 6 5 4 6 6
1091 700 784 823 919 564 195 138 66 31 15 16 33 43 29 8 10 28 13 8 5 3 2 4 5 4 3 3 5 5 8 9 7 6 8 4 4 5 7 6 6 6 5
1255 1040 988 886 869 483 121 51 63 7 12 16 12 12 11 0 0 0 5 11 8 5 0 0 0 0 0 0 0 0 0 11 20 3 9 6 8 5 12 8 6 4 3
1572 1300 1151 1122 944 239 98 49 5 4 5 3 6 9 8 0 0 0 0 2 4 6 5 2 0 0 4 2 0 0 0 0 0 6 6 3 5 10 19 13 10 7 7
1777 1723 1389 1110 674 159 64 12 5 7 11 6 6 10 1 0 0 0 0 2 3 4 5 2 0 0 0 0 0 0 0 0 0 0 1 4 18 16 0 2 3 4 3
1451 1251 1325 1040 393 85 43 14 7 8 7 13 19 22 8 0 0 0 0 1 2 1 1 0 0 0 0 0 0 0 0 0 0 0 0 0 0 0 0 13 19 26 12
1 20 92 538 93 60 35 11 12 8 6 4 8 7 0 0 0 0 0 5 3 0 0 0 0 0 0 0 7 8 0 0 0 0 0 0 0 0 0 0 0 4 5
5 5 3 25 7 8 8 7 12 10 10 5 1 4 3 1 0 0 0 4 1 1 0 0 0 0 0 0 0 4 0 0 0 0 0 0 0 0 0 0 0 0 0
5 4 3 1 1 1 2 2 11 9 14 3 2 0 1 0 0 0 0 0 0 0 0 0 0 0 0 0 0 0 0 0 0 0 0 0 0 0 0 0 0 0 0
6 7 5 4 2 2 1 7 2 2 0 4 3 4 4 4 0 0 0 0 0 0 0 0 0 0 0 0 0 0 0 0 0 0 0 0 0 0 0 0 0 0 0
7 8 7 5 6 3 2 4 3 4 3 2 2 4 5 4 4 0 0 0 0 0 0 0 0 0 0 0 0 0 0 0 0 0 0 0 0 0 0 0 0 0 0
7 6 6 5 3 2 2 2 1 1 1 6 7 6 3 2 1 0 0 0 0 0 0 0 0 0 0 0 0 0 0 0 0 0 0 0 0 0 0 0 0 0 0
3 3 2 1 1 2 3 0 0 0 0 0 0 0 0 0 0 0 0 0 0 0 0 0 0 0 0 0 0 0 0 0 0 0 0 0 0 0 0 0 0 0 0
0 2 0 0 0 0 0 0 0 0 0 0 0 0 0 0 0 0 0 0 0 0 0 0 0 0 0 0 0 0 0 0 0 0 0 0 0 0 0 0 0 0 0
0 0 0 1 0 0 0 0 0 0 0 0 0 0 0 0 0 0 0 0 0 0 0 0 0 0 0 0 0 0 0 0 0 0 0 0 0 0 0 0 0 0 0
0 0 0 0 0 0 0 0 0 0 0 0 0 0 0 0 0 0 0 0 0 0 0 0 0 0 0 0 0 0 0 0 0 0 0 0 0 0 0 0 0 0 0
0 0 0 0 0 0 0 0 0 0 0 0 0 0 0 0 0 0 0 0 0 0 0 0 0 0 0 0 0 0 0 0 0 0 0 0 0 0 0 0 0 0 0
0 0 0 0 0 0 0 0 0 0 0 0 0 0 0 0 0 0 0 0 0 0 0 0 0 0 0 0 0 0 0 0 0 0 0 0 0 0 0 0 0 0 0
0 0 0 0 0 0 0 0 0 0 0 0 0 0 0 0 0 0 0 0 0 0 0 0 0 0 0 0 0 0 0 0 0 0 0 0 0 0 0 0 0 0 0
0 0 0 0 0 0 0 0 1 0 0 0 0 0 0 0 0 0 0 0 0 0 0 0 0 0 0 0 0 0 0 0 0 0 0 0 0 0 0 0 0 0 0
0 1 11 43 41 6 2 1 7 0 6 12 3 0 0 0 0 0 0 0 0 0 0 0 0 0 0 0 0 0 0 0 0 0 0 0 0 0 0 0 0 0 0
41 49 40 27 6 27 43 28 16 15 40 3 4 31 18 6 7 2 0 1 0 0 0 0 0 0 0 0 0 0 0 0 0 0 0 0 0 0 0 0 0 0 0
0 0 0 0 0 2 5 4 6 34 37 33 78 85 76 61 39 33 30 35 16 8 4 1 0 0 0 0 0 0 0 0 0 0 0 0 0 0 0 0 0 0 0